Creek Data

    Home     View Charts     View Raw Data     Messages

ID Distance Battery Voltage Battery Current Internal Temp Internal Humidity External Temp Solar Input rssi snr Time Stamp Record
34594 15.7 4.00 5 68 36 62 5.1 -75 8 03/10/2025 12:30 PM 16327
34593 15.6 3.99 0 66 36 60 5.1 -75 8 03/10/2025 12:15 PM 16326
34592 15.7 4.00 5 66 36 61 5.1 -76 8 03/10/2025 12:00 PM 16325
34591 15.7 3.99 0 65 35 60 5.1 -75 8 03/10/2025 11:45 AM 16324
34590 15.6 3.99 0 63 36 59 5.1 -76 7 03/10/2025 11:30 AM 16323
34589 15.6 3.99 5 61 36 57 5.1 -75 7 03/10/2025 11:15 AM 16322
34588 15.6 4.04 5 61 35 57 5.1 -76 7 03/10/2025 11:00 AM 16321
34587 15.7 3.99 0 59 35 56 5.1 -77 7 03/10/2025 10:45 AM 16320
34586 15.6 3.99 0 58 35 57 5.1 -75 8 03/10/2025 10:30 AM 16319
34585 15.7 4.12 6 56 34 55 5.1 -74 8 03/10/2025 10:15 AM 16318
34584 15.6 3.99 6 53 34 55 5.1 -76 8 03/10/2025 10:00 AM 16317
34583 15.6 3.99 0 51 35 53 5.1 -74 8 03/10/2025 09:45 AM 16316
34582 15.6 4.12 0 48 35 51 5.1 -74 8 03/10/2025 09:30 AM 16315
34581 15.5 3.99 6 45 35 49 5.1 -76 8 03/10/2025 09:15 AM 16314
34580 15.5 4.02 5 43 36 47 5.1 -75 8 03/10/2025 09:00 AM 16313
34579 15.4 4.00 5 41 36 45 5.1 -75 8 03/10/2025 08:45 AM 16312
34578 15.4 4.07 46 40 36 42 4.5 -75 8 03/10/2025 08:30 AM 16311
34577 15.4 4.03 24 38 37 41 4.5 -75 8 03/10/2025 08:15 AM 16310
34576 15.4 4.01 7 37 37 40 4.5 -75 8 03/10/2025 08:00 AM 16309
34575 15.5 3.97 13 37 38 41 4.5 -75 8 03/10/2025 07:45 AM 16308
34574 15.4 3.91 -10 36 38 39 4.5 -75 8 03/10/2025 07:30 AM 16307
34573 15.4 3.91 -9 36 38 38 2.4 -75 8 03/10/2025 07:15 AM 16306
34572 15.5 3.92 -5 36 38 37 0 -75 8 03/10/2025 07:00 AM 16305
34571 0.0 3.92 -5 37 38 38 0 -75 8 03/10/2025 06:45 AM 16304
34570 0.0 3.92 -5 37 37 38 0 -75 8 03/10/2025 06:30 AM 16303